This is the latest recevied weather packets stored in our database for station/object LRBC. If no packets are shown the sender has not sent any weather packets the latest 10 day(s).
| Time | Temp. | Humidity | Pressure | Rain* | Wind** | Luminosity | Snow |
|---|---|---|---|---|---|---|---|
| 1777313027 | 12.22° C | 44% | 1019 hPa | - | - | - | - |
| 1777310325 | 12.78° C | 41% | 1018 hPa | - | - | - | - |
| 1777306751 | 13.89° C | 39% | 1018 hPa | - | - | - | - |
| 1777300427 | 13.89° C | 39% | 1019 hPa | - | - | - | - |
| 1777299610 | 15° C | 39% | 1019 hPa | - | - | - | - |
| 1777294128 | 13.89° C | 36% | 1020 hPa | - | - | - | - |
| 1777292328 | 13.89° C | 33% | 1020 hPa | - | - | - | - |
| 1777289628 | 13.89° C | 33% | 1021 hPa | - | - | - | - |
| 1777288727 | 13.89° C | 29% | 1022 hPa | - | - | - | - |
| 1777287890 | 13.89° C | 29% | 1022 hPa | - | - | - | - |
| 1777286928 | 12.78° C | 31% | 1022 hPa | - | - | - | - |
| 1777286028 | 12.78° C | 31% | 1022 hPa | - | - | - | - |
| 1777285127 | 12.22° C | 30% | 1023 hPa | - | - | - | - |
| 1777284228 | 12.22° C | 30% | 1023 hPa | - | - | - | - |
| 1777283328 | 12.22° C | 33% | 1023 hPa | - | - | - | - |
| 1777281528 | 12.22° C | 30% | 1024 hPa | - | - | - | - |
| 1777280627 | 12.22° C | 30% | 1024 hPa | - | - | - | - |
| 1777278828 | 11.11° C | 35% | 1024 hPa | - | - | - | - |
| 1777277928 | 10° C | 43% | 1025 hPa | - | - | - | - |
| 1777277028 | 10° C | 43% | 1025 hPa | - | - | - | - |
| 1777276127 | 8.89° C | 46% | 1025 hPa | - | - | - | - |
| 1777275228 | 8.89° C | 46% | 1025 hPa | - | - | - | - |
| 1777274328 | 7.78° C | 46% | 1025 hPa | - | - | - | - |
| 1777273428 | 7.78° C | 46% | 1025 hPa | - | - | - | - |
| 1777272527 | 7.78° C | 50% | 1025 hPa | - | - | - | - |
* Rain since midnight (hover to see other rain measurements)
** Current wind speed in m/s (hover to see current wind gust speed)